Location: Hains Lake
(37.8540°N, 99.8578°W)
Time: 13:20:43
(UTC+00:00)

S-56A Canister/Altair - Visible Passes

Search period start: 23 April 2021 00:00
Search period end: 03 May 2021 00:00
Orbit: 632 x 2500 km, 38.9° (Epoch: 23 April)

Date Brightness Start Highest point End Pass type
(mag) Time Alt. Az. Time Alt. Az. Time Alt. Az.
23 Apr 10.1 02:07:05 10° S 02:15:16 22° SE 02:20:31 13° ESE visible
23 Apr 9.1 04:09:54 10° SW 04:18:03 46° SSW 04:18:03 46° SSW visible
23 Apr 8.1 10:31:03 26° SW 10:31:50 28° SSW 10:35:37 10° SSE visible
24 Apr 8.8 03:36:26 10° SW 03:47:07 50° SSE 03:48:28 46° SE visible
24 Apr 10.1 05:42:36 10° WSW 05:45:59 23° WSW 05:45:59 23° WSW visible
24 Apr 8.3 10:00:50 27° S 10:00:50 27° S 10:03:25 10° SE visible
25 Apr 9.2 03:02:59 10° SW 03:14:08 47° SSE 03:18:42 26° E visible
25 Apr 9.1 05:09:02 10° WSW 05:16:13 49° WSW 05:16:13 49° WSW visible
25 Apr 9.5 09:30:46 13° SE 09:30:46 13° SE 09:31:11 10° SE visible
26 Apr 9.4 02:29:33 10° SW 02:41:06 44° SSE 02:48:45 12° E visible
26 Apr 8.4 04:35:24 10° WSW 04:46:02 82° SSE 04:46:15 81° SE visible
26 Apr 10.5 06:42:28 10° W 06:43:44 14° W 06:43:44 14° W visible
27 Apr 9.7 01:56:09 10° SSW 02:08:00 41° SSE 02:16:29 10° E visible
27 Apr 8.7 04:01:43 10° WSW 04:13:06 78° SSE 04:16:04 44° E visible
27 Apr 9.7 06:08:59 10° W 06:13:33 30° W 06:13:33 30° W visible
28 Apr 8.9 03:28:01 10° WSW 03:40:06 75° SSE 03:45:42 23° E visible
28 Apr 8.9 05:35:22 10° W 05:43:10 57° W 05:43:10 57° W visible
29 Apr 9.1 02:54:18 10° WSW 03:07:01 71° SSE 03:15:10 11° ENE visible
29 Apr 8.5 05:01:41 10° W 05:12:13 84° N 05:12:37 80° NE visible
29 Apr 10.4 07:08:46 10° WNW 07:10:04 15° WNW 07:10:04 15° WNW visible
30 Apr 9.3 02:20:37 10° SW 02:33:52 67° SSE 02:42:51 10° ENE visible
30 Apr 8.7 04:27:55 10° W 04:39:15 85° N 04:41:55 48° E visible
30 Apr 9.8 06:35:18 10° WNW 06:39:22 28° W 06:39:22 28° W visible
01 May 9.5 01:46:58 10° SW 02:00:39 64° SSE 02:10:13 10° ENE visible
01 May 8.9 03:54:07 10° W 04:06:13 87° N 04:11:07 29° E visible
01 May 9.1 06:01:45 10° W 06:08:33 47° W 06:08:33 47° W visible
02 May 9.1 03:20:16 10° WSW 03:33:07 89° N 03:40:13 17° E visible
02 May 8.6 05:28:05 10° W 05:37:38 76° W 05:37:38 76° W visible
